(207350) = 2005 JH59 = 2006 PU9

Discovered at Mount Lemmon on 2005-05-08 by Mt. Lemmon Survey.

Orbit

Orbit type: Main Belt

Note: WebGL enabled browser required.

epoch2024-03-31.0
epoch JD2460400.5
perihelion date2020-09-05.71642
perihelion JD2459098.21642
argument of perihelion (°)271.49371
ascending node (°)359.90196
inclination (°)2.75869
eccentricity0.1646371
perihelion distance (AU)2.3966692
Tisserand w.r.t. Jupiter3.3
ΔV w.r.t. Earth (km/sec)9.8
semimajor axis (AU)2.8690155
mean anomaly (°)264.12534
mean daily motion (°/day)0.20281710
aphelion distance (AU)3.341
period (years)4.86
P-vector [x]0.02435865
P-vector [y]-0.89700859
P-vector [z]-0.44134141
Q-vector [x]0.99970328
Q-vector [y]0.02182004
Q-vector [z]0.01082759
absolute magnitude16.53
phase slope0.15
uncertainty0
referenceMPEC 2024-F28
observations used285
oppositions15
arc length (days)6902
first opposition used2005
last opposition used2024
residual rms (arc-secs)0.78
perturbers coarse indicatorM-v
perturbers precise indicator003Ek
first observation date used2005-04-12.0
last observation date used2024-03-05.0
computer nameMPCLINUX
JD of orbit computation2456700.261416
perihelion JD uncertainty (days)1.2087E-04
argument of perihelion uncertainty (°)1.0122E-04
ascending node uncertainty (°)9.9093E-05
inclination uncertainty (°)6.4382E-06
eccentricity uncertainty 4.5045E-08
perihelion distance uncertainty (AU)1.3611E-07
Minimum Orbit Intersection Distances (in AU)
for orbit epoch: 2460400.5, reference: E2024-G88
Mercury1.93251
Venus1.67016
Earth1.38232
Mars0.91899
Jupiter1.76934
Saturn5.71219
Uranus15.3556
Neptune26.61

Observations

288 total observations over interval: 2005 04 12.32725 – 2024 03 05.239006
These data are available for download (format description).

Date (UT) J2000 RA J2000 Dec Magn Location Ref
2005 04 12.32725 12 38 11.47 -05 17 57.1 19.7 R 695 – Kitt Peak MPS 174720
2005 04 12.42577 12 38 06.51 -05 17 32.5   695 – Kitt Peak MPS 174720
2005 05 08.24907 12 22 11.93 -03 57 05.4 20.3 R G96 – Mt. Lemmon Survey MPS 134116
2005 05 08.25844 12 22 11.69 -03 57 04.6 19.9 R G96 – Mt. Lemmon Survey MPS 134116
2005 05 08.26778 12 22 11.50 -03 57 03.9 19.3 R G96 – Mt. Lemmon Survey MPS 134116
2005 05 08.27712 12 22 11.30 -03 57 02.7 19.6 R G96 – Mt. Lemmon Survey MPS 134116
2005 05 10.16551 12 21 34.31 -03 54 11.2 21.0 V 691 – Steward Observatory, Kitt Peak-Spacewatch MPS 134116
2005 05 10.18151 12 21 34.01 -03 54 10.0 21.1 V 691 – Steward Observatory, Kitt Peak-Spacewatch MPS 134116
2005 05 10.19746 12 21 33.70 -03 54 08.7 20.9 V 691 – Steward Observatory, Kitt Peak-Spacewatch MPS 134116
2005 05 12.20772 12 20 59.89 -03 51 42.8 18.1 R G96 – Mt. Lemmon Survey MPS 134116
2005 05 12.21701 12 20 59.82 -03 51 41.6 19.8 R G96 – Mt. Lemmon Survey MPS 134116
2005 05 12.22630 12 20 59.61 -03 51 40.7 18.8 R G96 – Mt. Lemmon Survey MPS 134116
2005 05 12.23560 12 20 59.40 -03 51 41.2 19.8 R G96 – Mt. Lemmon Survey MPS 134116
2006 08 13.35506 22 09 22.67 -14 10 14.7 20.3 R 644 – Palomar Mountain/NEAT MPS 176099
2006 08 13.37731 22 09 21.53 -14 10 19.6 20.0 R 644 – Palomar Mountain/NEAT MPS 176099
2006 08 13.39842 22 09 20.43 -14 10 24.4 19.8 R 644 – Palomar Mountain/NEAT MPS 176099
2006 08 15.29963 22 07 45.30 -14 17 17.7 19.7 R 644 – Palomar Mountain/NEAT MPS 178519
2006 08 15.32093 22 07 44.21 -14 17 22.4 19.8 R 644 – Palomar Mountain/NEAT MPS 178519
2006 08 15.34673 22 07 42.85 -14 17 28.7 20.2 R 644 – Palomar Mountain/NEAT MPS 178519
2006 08 17.25437 22 06 06.15 -14 24 20.3 19.5 R 644 – Palomar Mountain/NEAT MPS 176099
2006 08 17.27484 22 06 05.06 -14 24 24.9 19.6 R 644 – Palomar Mountain/NEAT MPS 176099
2006 08 17.29572 22 06 03.95 -14 24 29.4 19.9 R 644 – Palomar Mountain/NEAT MPS 176099
2006 08 18.28625 22 05 13.30 -14 28 02.0 19.6 R 644 – Palomar Mountain/NEAT MPS 177069
2006 08 18.30721 22 05 12.17 -14 28 06.2 19.9 R 644 – Palomar Mountain/NEAT MPS 177069
2006 08 18.32775 22 05 11.12 -14 28 10.7 19.6 R 644 – Palomar Mountain/NEAT MPS 177069
2006 08 20.29537 22 03 30.19 -14 35 07.4 19.4 R 644 – Palomar Mountain/NEAT MPS 176062
2006 08 20.31579 22 03 29.14 -14 35 11.5 19.8 R 644 – Palomar Mountain/NEAT MPS 176062
2006 08 20.33630 22 03 28.02 -14 35 15.9 19.6 R 644 – Palomar Mountain/NEAT MPS 176062
2006 09 30.17111 21 39 02.77 -15 43 03.6 20.7 V G96 – Mt. Lemmon Survey MPS 182717
2006 09 30.17909 21 39 02.70 -15 43 03.3 20.8 V G96 – Mt. Lemmon Survey MPS 182717
2006 09 30.18683 21 39 02.62 -15 43 02.8 20.7 V G96 – Mt. Lemmon Survey MPS 182717
2006 09 30.19487 21 39 02.52 -15 43 02.9 20.8 V G96 – Mt. Lemmon Survey MPS 182717
2007 11 13.16297 03 38 09.44 +22 46 57.6 21.7 V 691 – Steward Observatory, Kitt Peak-Spacewatch MPS 272596
2007 11 13.18062 03 38 08.46 +22 46 55.5 21.0 V 691 – Steward Observatory, Kitt Peak-Spacewatch MPS 272596
2007 11 13.19825 03 38 07.49 +22 46 53.5 21.2 V 691 – Steward Observatory, Kitt Peak-Spacewatch MPS 272596
2009 01 02.42549 08 33 10.54 +22 19 54.6 21.4 V G96 – Mt. Lemmon Survey MPS 271765
2009 01 02.43461 08 33 10.11 +22 19 56.4 21.2 V G96 – Mt. Lemmon Survey MPS 271765
2009 01 02.44376 08 33 09.72 +22 19 57.8 21.3 V G96 – Mt. Lemmon Survey MPS 271765
2009 01 02.45291 08 33 09.28 +22 19 59.3 21.1 V G96 – Mt. Lemmon Survey MPS 271765
2009 01 29.09064 08 09 42.50 +23 32 58.8   691 – Steward Observatory, Kitt Peak-Spacewatch MPS 272596
2009 01 29.10828 08 09 41.50 +23 33 01.1   691 – Steward Observatory, Kitt Peak-Spacewatch MPS 272596
2009 01 29.12593 08 09 40.54 +23 33 04.1   691 – Steward Observatory, Kitt Peak-Spacewatch MPS 272596
2009 01 31.12331 08 07 51.51 +23 37 21.1 21.0 V 691 – Steward Observatory, Kitt Peak-Spacewatch MPS 272596
2009 01 31.14143 08 07 50.50 +23 37 23.5 21.0 V 691 – Steward Observatory, Kitt Peak-Spacewatch MPS 272596
2009 01 31.15979 08 07 49.60 +23 37 25.0 20.3 V 691 – Steward Observatory, Kitt Peak-Spacewatch MPS 272596
2009 02 20.12831 07 52 24.06 +24 03 48.8 21.1 V 691 – Steward Observatory, Kitt Peak-Spacewatch MPS 278520
2009 02 20.14512 07 52 23.44 +24 03 49.4 20.8 V 691 – Steward Observatory, Kitt Peak-Spacewatch MPS 278520
2009 02 20.16192 07 52 22.80 +24 03 50.5 21.3 V 691 – Steward Observatory, Kitt Peak-Spacewatch MPS 278520
2010 03 12.39258 14 05 21.21 -14 04 01.6 20.8 V 691 – Steward Observatory, Kitt Peak-Spacewatch MPS 317756
2010 03 12.41029 14 05 20.94 -14 04 02.0 20.4 V 691 – Steward Observatory, Kitt Peak-Spacewatch MPS 317756
2010 03 12.43493 14 05 20.55 -14 04 02.0 20.6 V 691 – Steward Observatory, Kitt Peak-Spacewatch MPS 317756
2010 03 16.36461 14 04 12.35 -14 03 39.8 21.2 V 691 – Steward Observatory, Kitt Peak-Spacewatch MPS 319167
2010 03 16.38234 14 04 11.95 -14 03 38.9 20.5 V 691 – Steward Observatory, Kitt Peak-Spacewatch MPS 319167
2010 03 16.40004 14 04 11.54 -14 03 39.1 20.6 V 691 – Steward Observatory, Kitt Peak-Spacewatch MPS 319167
2010 04 06.479159 13 52 01.339 -13 28 36.57 19.90 i F51 – Pan-STARRS 1, Haleakala MPS 338802
2010 04 06.488157 13 52 00.895 -13 28 35.32 19.99 i F51 – Pan-STARRS 1, Haleakala MPS 338802
2010 04 08.24308 13 50 38.54 -13 23 27.0 20.3 V 691 – Steward Observatory, Kitt Peak-Spacewatch MPS 322076
2010 04 08.26078 13 50 37.66 -13 23 23.8 20.2 V 691 – Steward Observatory, Kitt Peak-Spacewatch MPS 322076
2010 04 08.27846 13 50 36.79 -13 23 20.4 20.5 V 691 – Steward Observatory, Kitt Peak-Spacewatch MPS 322076
2010 04 15.35439 13 44 44.59 -13 00 02.0 19.5 V G96 – Mt. Lemmon Survey MPS 323339
2010 04 15.36145 13 44 44.19 -13 00 00.6 19.7 V G96 – Mt. Lemmon Survey MPS 323339
2010 04 15.37564 13 44 43.47 -12 59 57.6 19.5 V G96 – Mt. Lemmon Survey MPS 323339
2010 04 17.19651 13 43 10.12 -12 53 25.9   691 – Steward Observatory, Kitt Peak-Spacewatch MPS 324754
2010 04 17.21419 13 43 09.20 -12 53 22.2   691 – Steward Observatory, Kitt Peak-Spacewatch MPS 324754
2010 04 17.23189 13 43 08.26 -12 53 18.3   691 – Steward Observatory, Kitt Peak-Spacewatch MPS 324754
2010 04 18.422821 13 42 06.595 -12 48 56.64 20.29 g F51 – Pan-STARRS 1, Haleakala MPS 338802
2010 04 18.431206 13 42 06.146 -12 48 54.66 20.35 g F51 – Pan-STARRS 1, Haleakala MPS 338802
2011 09 21.22730 22 47 57.51 -08 47 07.2 20.3 V G96 – Mt. Lemmon Survey MPS 392367
2011 09 21.23252 22 47 57.30 -08 47 08.1 20.2 V G96 – Mt. Lemmon Survey MPS 392367
2011 09 21.23771 22 47 57.04 -08 47 09.2 20.1 V G96 – Mt. Lemmon Survey MPS 392367
2011 09 21.24299 22 47 56.79 -08 47 10.2 20.1 V G96 – Mt. Lemmon Survey MPS 392367
2011 09 22.28094 22 47 12.90 -08 50 16.0   291 – LPL/Spacewatch II MPS 392367
2011 09 22.28525 22 47 12.71 -08 50 16.9   291 – LPL/Spacewatch II MPS 392367
2011 09 22.28893 22 47 12.57 -08 50 17.1   291 – LPL/Spacewatch II MPS 392367
2011 09 30.20308 22 42 15.22 -09 10 04.6 20.6 V G96 – Mt. Lemmon Survey MPS 394014
2011 09 30.20964 22 42 14.97 -09 10 05.2 20.5 V G96 – Mt. Lemmon Survey MPS 394014
2011 09 30.21583 22 42 14.79 -09 10 06.0 20.6 V G96 – Mt. Lemmon Survey MPS 394014
2011 09 30.22203 22 42 14.58 -09 10 06.7 20.6 V G96 – Mt. Lemmon Survey MPS 394014
2012 11 20.42000 04 17 50.92 +24 56 49.3 21.1 V G96 – Mt. Lemmon Survey MPS 444659
2012 11 20.42809 04 17 50.46 +24 56 48.4 20.8 V G96 – Mt. Lemmon Survey MPS 444659
2012 11 20.43618 04 17 50.02 +24 56 47.6 20.7 V G96 – Mt. Lemmon Survey MPS 444659
2012 11 20.44426 04 17 49.56 +24 56 46.6 20.9 V G96 – Mt. Lemmon Survey MPS 444659
2012 11 24.21929 04 14 18.29 +24 49 46.1 20.6 V 691 – Steward Observatory, Kitt Peak-Spacewatch MPS 444659
2012 11 24.23699 04 14 17.30 +24 49 44.7 21.1 V 691 – Steward Observatory, Kitt Peak-Spacewatch MPS 444659
2012 11 24.25469 04 14 16.28 +24 49 42.7 21.3 V 691 – Steward Observatory, Kitt Peak-Spacewatch MPS 444659
2014 01 24.37197 08 59 53.801 +20 14 55.27 21.0 w F51 – Pan-STARRS 1, Haleakala MPS 499909
2014 01 24.38514 08 59 53.101 +20 14 58.12 21.0 w F51 – Pan-STARRS 1, Haleakala MPS 499909
2014 01 24.39832 08 59 52.377 +20 15 00.85 21.0 w F51 – Pan-STARRS 1, Haleakala MPS 499909
2014 01 24.41153 08 59 51.664 +20 15 03.58 20.8 w F51 – Pan-STARRS 1, Haleakala MPS 499909
